Location: Battersea Observatory
(44.4318°N, 76.3841°W)
Time: 21:22:23
(UTC-04:00)

Tiros 1 despin weight - Pass Details

Date: 27 January 2022
Orbit: 592 x 639 km, 48.2° (Epoch: 25 May)

Event Time Altitude Azimuth Distance (km) Brightness Sun altitude
Rises 20:03:14 0° 289° (WNW) 2,906 ? -31.2°
Reaches altitude 10° 20:05:33 10° 292° (WNW) 2,006 ? -31.7°
Enters shadow 20:07:52 29° 299° (WNW) 1,162 ? -32.1°
Maximum altitude 20:10:09 68° 15° (NNE) 683 - -32.5°
Drops below altitude 10° 20:14:55 10° 99° (E) 2,063 - -33.3°
Sets 20:17:10 0° 102° (ESE) 2,935 - -33.7°
